[[{"header":{"parameterUnit":"m.s-1","parameterCategory":1,"la1":30.2991,"la2":30.254,"lo1":-89.0895,"lo2":-89.0444,"dy":0.0017,"dx":0.0017,"nx":28,"ny":28,"refTime":"2024-04-17T03:00:00:Z","depth":0,"parameterNumber":2,"parameterNumberName":"U-component_of_WINDS"},"data":[0,0,0,0,0,0,0,0,0,0,0,0,0,0,0,0,0,0,0,0,0,0,0,0,0,0,0,0,0,0,0,0,0,0,0,0,0,0,0,0,0,0,0,0,0,0,0,0,0,0,0,0,0,0,0,0,0,0,-2.9473,-2.9472,0,-2.9447,-2.9447,-2.9446,-2.9381,-2.9379,-2.9378,-2.9377,-2.9352,-2.9352,-2.9353,0,0,0,0,0,0,0,0,0,0,0,0,0,-2.9468,-2.9468,-2.9473,-2.9472,-2.9472,-2.9447,-2.9447,-2.9446,-2.9381,-2.9379,-2.9378,-2.9376,-2.9352,-2.9352,-2.9353,0,0,0,0,0,0,0,0,0,0,0,0,0,-2.9459,-2.9469,-2.9473,-2.9436,-2.9433,-2.9447,-2.9447,-2.9446,-2.9381,-2.9379,-2.9377,-2.9375,-2.9351,-2.9352,-2.9353,-2.9401,0,0,-2.9356,-2.9357,0,0,0,0,0,0,0,0,-2.946,-2.9459,-2.9442,-2.9439,-2.9435,-2.9415,-2.9436,-2.9431,-2.9382,-2.9401,-2.9377,-2.9374,-2.9375,-2.9374,-2.9373,-2.94,-2.9399,-2.9356,-2.9357,-2.9357,-2.9358,0,0,0,0,0,0,0,-2.946,-2.946,-2.9462,-2.9442,-2.9438,-2.9422,-2.9419,-2.9435,-2.94,-2.9399,-2.9394,-2.9392,-2.9372,-2.9373,-2.9372,-2.9398,-2.9356,-2.9357,-2.9358,-2.9358,-2.9464,-2.9466,0,0,0,0,0,0,-2.9466,-2.9461,-2.9463,-2.9462,-2.9442,-2.9424,-2.942,-2.9424,-2.94,-2.9394,-2.9394,-2.9389,-2.9372,-2.9371,-2.9371,-2.9425,-2.9357,-2.9358,-2.9359,-2.9462,-2.9464,-2.9467,0,0,0,0,0,0,-2.9466,-2.9467,-2.9464,-2.946,-2.9459,-2.9426,-2.9431,-2.9424,-2.9424,-2.9396,-2.9389,-2.94,-2.937,-2.937,-2.9394,-2.9423,-2.9359,-2.9359,-2.9459,-2.9462,-2.9466,-2.9534,0,0,0,0,0,0,-2.9466,-2.9467,-2.9484,-2.9461,-2.9459,-2.9487,-2.9433,-2.9425,-2.9426,-2.9419,-2.94,-2.9395,-2.9369,-2.9393,-2.9395,-2.9423,-2.936,-2.9456,-2.9461,-2.9464,-2.9528,-2.9539,-2.9548,0,0,0,0,0,-2.9466,-2.9504,-2.9485,-2.9486,-2.9479,-2.9489,-2.9488,-2.9456,-2.9428,-2.9445,-2.9428,-2.9395,-2.9421,-2.9396,-2.9398,-2.9427,-2.9454,-2.9459,-2.9464,-2.9524,-2.9537,-2.9547,0,0,0,0,0,0,-2.9531,-2.95,-2.9479,-2.951,-2.9503,-2.9477,-2.9498,-2.9471,-2.9471,-2.9465,-2.9427,-2.9423,-2.9453,-2.9443,-2.9416,-2.9473,-2.9432,-2.9438,-2.9477,-2.9489,-2.9498,-2.9499,-2.9361,0,0,0,0,0,-2.9549,-2.9559,-2.9532,-2.9562,-2.956,-2.953,-2.9533,-2.951,-2.95,-2.9497,-2.948,-2.9473,-2.9479,-2.9484,-2.9488,-2.9528,-2.9523,-2.9549,-2.9559,-2.9567,-2.9571,-2.9592,-2.9603,-2.9483,-2.9483,-2.9483,0,0,-2.9586,-2.9571,-2.9579,-2.9575,-2.9566,-2.9578,-2.9527,-2.9541,-2.9549,-2.9499,-2.952,-2.9509,-2.9498,-2.9531,-2.9544,-2.9523,-2.9604,-2.9573,-2.958,-2.958,-2.9598,-2.961,-2.962,-2.9487,-2.9486,-2.9486,0,0,-2.9659,-2.9649,-2.9673,-2.9666,-2.9653,-2.9634,-2.964,-2.962,-2.961,-2.9631,-2.9594,-2.9604,-2.9616,-2.961,-2.9608,-2.9683,-2.9653,-2.9686,-2.9735,-2.9755,-2.9765,-2.9773,-2.9798,-2.9808,-2.9691,-2.9691,-2.9691,0,-2.9707,-2.9721,-2.9689,-2.9705,-2.9705,-2.9661,-2.9686,-2.9681,-2.9671,-2.9672,-2.9649,-2.9663,-2.9653,-2.9684,-2.9702,-2.9703,-2.9709,-2.9686,-2.9766,-2.9774,-2.9781,-2.9805,-2.9815,-2.9695,-2.9695,-2.9694,-2.9694,0,-2.978,-2.9792,-2.9813,-2.9804,-2.9807,-2.9827,-2.9799,-2.9806,-2.9784,-2.9767,-2.9791,-2.9778,-2.9778,-2.9785,-2.9763,-2.9813,-2.98,-2.9773,-2.9731,-2.9797,-2.9819,-2.9828,-2.9701,-2.9699,-2.9698,-2.9697,0,0,-2.9889,-2.9865,-2.9873,-2.9869,-2.9854,-2.9862,-2.9882,-2.9883,-2.9889,-2.9886,-2.9901,-2.9913,-2.9888,-2.9887,-2.9865,-2.9883,-2.9943,-2.9853,-2.9852,-2.9869,-2.9996,-3.0016,-3.0027,-2.9924,-2.9926,-2.9927,-2.9997,0,-2.9957,-2.9987,-2.996,-2.9997,-3.0007,-2.9967,-2.9985,-2.9978,-2.9964,-2.9972,-2.9957,-2.9966,-2.9932,-2.9931,-2.9948,-2.9932,-2.9967,-2.9927,-2.9938,-2.9939,-2.9939,-3.0038,-3.0058,-3.0124,-3.0005,-3.0007,-3.0008,0,-3.0038,-3.0038,-3.0075,-3.0059,-3.0062,-3.0078,-3.0078,-3.0086,-3.0078,-3.0067,-3.0067,-3.0041,-3.006,-3.0022,-3.0049,-3.0022,-3.0026,-3.0019,-3.0021,-3.0018,-2.9975,-3.0037,-3.0144,-3.0153,-3.0021,-3.002,-3.0019,0,-3.0113,-3.0122,-3.0146,-3.0144,-3.0126,-3.0138,-3.0131,-3.0122,-3.0125,-3.0125,-3.0127,-3.013,-3.0131,-3.0135,-3.0111,-3.0085,-3.0141,-3.01,-3.0131,-3.0132,-3.0142,-3.0141,-3.025,-3.0149,-3.0149,-3.0149,-3.0148,0,-3.0189,-3.0213,-3.0179,-3.0193,-3.022,-3.019,-3.0217,-3.0206,-3.0199,-3.0211,-3.0178,-3.0191,-3.0159,-3.0169,-3.0151,-3.0175,-3.0177,-3.0168,-3.0163,-3.017,-3.0171,-3.017,-3.0164,-3.0151,-3.0151,-3.015,-3.015,0,-3.0275,-3.0253,-3.0276,-3.0258,-3.0254,-3.0274,-3.0259,-3.0272,-3.0258,-3.0274,-3.0276,-3.0253,-3.0263,-3.024,-3.0247,-3.0235,-3.0269,-3.0258,-3.0271,-3.0267,-3.0299,-3.0296,-3.0408,-3.0422,-3.0315,-3.0316,-3.0317,0,-3.0324,-3.0342,-3.0326,-3.0332,-3.0327,-3.0337,-3.034,-3.0313,-3.0317,-3.0311,-3.0326,-3.0333,-3.0337,-3.0355,-3.0339,-3.0344,-3.0331,-3.0371,-3.0332,-3.0339,-3.033,-3.0328,-3.033,-3.0378,-3.0379,-3.038,-3.0381,0,-3.0413,-3.0402,-3.0407,-3.041,-3.0414,-3.0415,-3.0413,-3.042,-3.0391,-3.0399,-3.0408,-3.0412,-3.0419,-3.0427,-3.0429,-3.0423,-3.0397,-3.0394,-3.0401,-3.0407,-3.0414,-3.0409,-3.0291,-3.0391,-3.039,-3.0389,-3.0388,-3.0388,-3.0481,-3.0495,-3.0486,-3.0494,-3.049,-3.049,-3.0501,-3.0489,-3.0496,-3.0499,-3.0484,-3.0497,-3.0491,-3.0492,-3.0489,-3.05,-3.0482,-3.0493,-3.0495,-3.0498,-3.0502,-3.0415,-3.05,-3.05,-3.05,-3.05,-3.0499,0,-3.0566,-3.056,-3.0567,-3.0566,-3.0573,-3.0549,-3.0547,-3.0554,-3.0566,-3.0563,-3.0568,-3.058,-3.0588,-3.0574,-3.058,-3.0591,-3.058,-3.0594,-3.0591,-3.059,-3.0518,-3.0511,-3.0603,-3.0603,-3.0603,-3.0603,-3.0603,-3.0603,-3.0612,-3.0634,-3.0623,-3.0644,-3.0637,-3.065,-3.065,-3.065,-3.0648,-3.0662,-3.0669,-3.066,-3.0653,-3.0658,-3.0665,-3.0661,-3.0664,-3.0682,-3.0673,-3.0606,-3.0595,-3.0586,-3.0578,-3.0683,-3.0683,-3.0744,-3.0745,-3.0745]},{"header":{"parameterUnit":"m.s-1","parameterCategory":1,"la1":30.2991,"la2":30.254,"lo1":-89.0895,"lo2":-89.0444,"dy":0.0017,"dx":0.0017,"nx":28,"ny":28,"refTime":"2024-04-17T03:00:00:Z","depth":0,"parameterNumber":3,"parameterNumberName":"V-component_of_WINDS"},"data":[0,0,0,0,0,0,0,0,0,0,0,0,0,0,0,0,0,0,0,0,0,0,0,0,0,0,0,0,0,0,0,0,0,0,0,0,0,0,0,0,0,0,0,0,0,0,0,0,0,0,0,0,0,0,0,0,0,0,3.048,3.048,0,3.0538,3.0539,3.054,3.0588,3.0589,3.0589,3.059,3.0648,3.0649,3.065,0,0,0,0,0,0,0,0,0,0,0,0,0,3.0409,3.041,3.048,3.048,3.0481,3.0538,3.0539,3.054,3.0588,3.0589,3.0589,3.059,3.0648,3.0649,3.065,0,0,0,0,0,0,0,0,0,0,0,0,0,3.0451,3.041,3.0479,3.0512,3.0516,3.0538,3.0539,3.054,3.0588,3.0589,3.0589,3.059,3.0647,3.0649,3.0651,3.0645,0,0,3.0656,3.0656,0,0,0,0,0,0,0,0,3.0448,3.0453,3.0506,3.051,3.0514,3.0557,3.0536,3.0575,3.0588,3.056,3.059,3.059,3.0617,3.0621,3.0631,3.0648,3.065,3.0656,3.0657,3.0657,3.0658,0,0,0,0,0,0,0,3.0445,3.0451,3.0503,3.0507,3.0512,3.0524,3.053,3.0543,3.0584,3.0563,3.0566,3.0573,3.0619,3.0629,3.0632,3.0651,3.0656,3.0657,3.0658,3.0659,3.0669,3.0668,0,0,0,0,0,0,3.0438,3.0448,3.0501,3.0505,3.0482,3.0524,3.0532,3.0542,3.0584,3.0591,3.0572,3.0575,3.0626,3.063,3.0634,3.0632,3.0657,3.0659,3.066,3.0669,3.0669,3.0668,0,0,0,0,0,0,3.0436,3.0442,3.0499,3.0477,3.0486,3.0525,3.0536,3.0543,3.0553,3.0591,3.0598,3.0575,3.0626,3.0632,3.0643,3.0635,3.066,3.0661,3.067,3.0669,3.0668,3.0627,0,0,0,0,0,0,3.0434,3.0441,3.0439,3.0477,3.0487,3.0506,3.0535,3.0543,3.0555,3.056,3.0595,3.0602,3.0628,3.064,3.0644,3.0638,3.0662,3.0671,3.067,3.0669,3.0629,3.0624,3.062,0,0,0,0,0,3.0431,3.0424,3.0439,3.0445,3.0485,3.0505,3.0511,3.0541,3.0554,3.0553,3.0578,3.06,3.0635,3.0641,3.0646,3.064,3.0672,3.067,3.0669,3.0631,3.0625,3.062,0,0,0,0,0,0,3.0384,3.043,3.0446,3.0452,3.0474,3.0513,3.0513,3.0534,3.0552,3.0556,3.0592,3.06,3.0606,3.0624,3.0629,3.0637,3.0656,3.0656,3.0626,3.0621,3.0616,3.0613,3.0664,0,0,0,0,0,3.0374,3.0387,3.0426,3.0427,3.0438,3.0473,3.0483,3.0505,3.0529,3.0539,3.0564,3.0586,3.0603,3.0612,3.0629,3.0631,3.064,3.063,3.0625,3.0622,3.0621,3.0625,3.0621,3.0663,3.0663,3.0663,0,0,3.0354,3.0381,3.0387,3.0419,3.0439,3.0451,3.0481,3.0492,3.0502,3.054,3.0552,3.0571,3.0599,3.0606,3.061,3.0621,3.0611,3.062,3.0616,3.0618,3.0623,3.0619,3.0615,3.0662,3.0662,3.0662,0,0,3.0325,3.0346,3.035,3.037,3.04,3.0423,3.0424,3.046,3.0475,3.0488,3.0517,3.0529,3.0555,3.0574,3.0587,3.0566,3.0588,3.057,3.0548,3.0552,3.0548,3.0546,3.0539,3.0537,3.0569,3.0569,3.0569,0,3.0296,3.0317,3.0349,3.036,3.0373,3.0409,3.0414,3.0431,3.0465,3.0473,3.0485,3.052,3.0541,3.0553,3.0548,3.0557,3.056,3.0567,3.0546,3.0544,3.0542,3.0536,3.0534,3.0567,3.0567,3.0567,3.0568,0,3.0281,3.0294,3.0294,3.0327,3.034,3.0348,3.0382,3.0391,3.0412,3.0434,3.0447,3.0474,3.0497,3.0501,3.0521,3.0517,3.0523,3.0539,3.056,3.0535,3.0531,3.0529,3.0564,3.0565,3.0565,3.0566,0,0,3.0224,3.0275,3.0275,3.0291,3.0327,3.0338,3.0347,3.0371,3.0379,3.0401,3.041,3.0432,3.0448,3.0463,3.0485,3.0488,3.0471,3.0505,3.0506,3.0499,3.047,3.0458,3.0455,3.0485,3.0485,3.0485,3.0468,0,3.0201,3.0221,3.0251,3.026,3.0274,3.0308,3.0317,3.034,3.0361,3.0375,3.0398,3.0414,3.0434,3.0443,3.0447,3.0472,3.0466,3.0473,3.0495,3.0495,3.0488,3.0452,3.044,3.0422,3.0466,3.0466,3.0466,0,3.0178,3.0199,3.021,3.0247,3.0254,3.026,3.0285,3.0298,3.0325,3.0341,3.0358,3.0382,3.0394,3.0411,3.0428,3.0433,3.0443,3.0456,3.0456,3.0461,3.048,3.0457,3.0418,3.0416,3.0463,3.0463,3.0463,0,3.0137,3.0168,3.018,3.0192,3.0234,3.0238,3.0256,3.0284,3.0297,3.0318,3.0327,3.0348,3.0361,3.0377,3.0407,3.0417,3.0421,3.0441,3.0435,3.0434,3.0435,3.0435,3.0399,3.0439,3.0439,3.0439,3.0439,0,3.011,3.0116,3.0162,3.0169,3.0177,3.0211,3.0218,3.0239,3.0263,3.0275,3.0305,3.0315,3.0353,3.0368,3.0391,3.0402,3.0407,3.042,3.0427,3.0418,3.0417,3.0427,3.0429,3.0439,3.0439,3.0439,3.0439,0,3.0067,3.0098,3.0113,3.0152,3.0162,3.0166,3.0199,3.0207,3.023,3.0245,3.025,3.0286,3.0305,3.0336,3.0364,3.0379,3.0387,3.0396,3.0378,3.0382,3.0375,3.0376,3.0345,3.0343,3.0383,3.0383,3.0382,0,3.0048,3.0054,3.0094,3.0104,3.0121,3.0137,3.015,3.0184,3.0197,3.0229,3.0233,3.0254,3.0274,3.0302,3.0331,3.0352,3.0364,3.0351,3.0367,3.0359,3.0365,3.0365,3.0367,3.0348,3.0347,3.0347,3.0346,0,3.0012,3.0028,3.0046,3.007,3.0086,3.0106,3.0128,3.0135,3.0173,3.0186,3.0207,3.0221,3.025,3.0271,3.0297,3.0315,3.0337,3.0341,3.0341,3.0334,3.0323,3.033,3.037,3.0342,3.0342,3.0343,3.0343,3.0343,2.9982,2.9989,3.0019,3.0039,3.0059,3.0079,3.0089,3.0114,3.0131,3.0158,3.0177,3.0196,3.0223,3.026,3.0277,3.0293,3.0302,3.0302,3.0302,3.0302,3.03,3.032,3.0297,3.0297,3.0297,3.0298,3.0298,0,2.9949,2.997,2.9988,3.0018,3.0034,3.0054,3.0079,3.0091,3.0108,3.0132,3.0151,3.0174,3.0195,3.0225,3.0249,3.0255,3.0266,3.026,3.0261,3.0265,3.0289,3.0287,3.0251,3.0251,3.0251,3.0251,3.0251,3.0251,2.9934,2.9948,2.9966,2.999,3.0011,3.0031,3.0044,3.0063,3.0082,3.0108,3.0126,3.0145,3.0172,3.0198,3.0218,3.0226,3.0234,3.0225,3.0237,3.0259,3.0263,3.0267,3.0266,3.0226,3.0226,3.0212,3.0212,3.0212]}]]